Regional Weather Roundup
Issued by NWS

Home | Current Version | Previous Version | Graphics & Text | Print | Product List | Glossary On
Versions: 1 2 3 4 5 6 7 8 9 10 11 12 13 14 15 16 17 18 19 20 21 22 23 24 25 26 27 28 29 30 31 32 33 34 35 36 37 38 39 40 41 42 43 44 45 46 47 48 49 50
000
ASUS43 KMPX 300210
RWRMN
WEATHER ROUNDUP FOR MINNESOTA
NATIONAL WEATHER SERVICE TWIN CITIES/CHANHASSEN MN
900 PM CDT FRI AUG 29 2014


NOTE: "FAIR" INDICATES FEW OR NO CLOUDS BELOW 12,000 FEET WITH NO
SIGNIFICANT WEATHER AND/OR OBSTRUCTIONS TO VISIBILITY. N/A MEANS
CURRENT SKY AND/OR WEATHER CONDITIONS ARE NOT AVAILABLE.

MNZ060>063-068>070-300300-
   Twin Cities Metro

CITY           SKY/WX    TMP DP  RH WIND       PRES   REMARKS
TWIN CITIES    CLOUDY    70  69  97 VRB7      29.76R
ST PAUL        CLOUDY    70  68  93 N3        29.76R
CRYSTAL        CLOUDY    72  68  87 NE3       29.75R FOG
BLAINE         CLOUDY    72  72 100 CALM      29.77R
LAKEVILLE      CLOUDY    72  64  78 N5        29.75S
EDEN PRAIRIE   CLOUDY    70  70 100 CALM      29.75R
SOUTH ST PAUL  CLOUDY    71  68  90 E3        29.76R
LAKE ELMO      CLOUDY    68  68 100 CALM      29.78R
$$
MNZ001>005-007-008-013>017-022>024-027-028-300300-
   Northwest Minnesota

CITY           SKY/WX    TMP DP  RH WIND       PRES   REMARKS
BEMIDJI        CLOUDY    67  64  91 NW6       29.80R
HALLOCK        CLEAR     61  55  82 N10       29.89R
ROSEAU         PTCLDY    59  54  82 N9        29.87R
WARROAD        CLOUDY    61  55  82 N8        29.87R
THIEF RVR FALL CLOUDY    61  55  82 N15       29.86R
CROOKSTON      CLOUDY    63  57  82 N13       29.87R
FOSSTON        CLOUDY    63  61  94 N12G17    29.83R
DETROIT LAKES  PTCLDY    64  63  94 NW3       29.82R
MOORHEAD       CLOUDY    64  64 100 N15G22    29.84R
PARK RAPIDS    MOCLDY    66  64  93 CALM      29.80R
MAHNOMEN       CLOUDY    65  64  96 NW3       29.81R
$$
MNZ006-009>011-018-025>026-300300-
   North Central Minnesota

CITY           SKY/WX    TMP DP  RH WIND       PRES   REMARKS
BAUDETTE       LGT RAIN  60  57  89 N13       29.84R
FLAG ISLAND    CLOUDY    63  57  82 N13       29.86R
INTL FALLS     CLOUDY    64  62  93 N6        29.81R
WASKISH        CLOUDY    64  63  94 N3        29.81R
BIG FORK       MOCLDY    64  63  94 CALM      29.81R
LONGVILLE      CLOUDY    64  64 100 CALM      29.79R FOG
GRAND RAPIDS   CLOUDY    64  63  94 CALM      29.81R
CRANE LAKE     CLOUDY    61  61 100 CALM      29.82R
ORR            CLOUDY    63  61  94 CALM      29.78R
COOK           CLOUDY    63  61  94 CALM      29.81R
WALKER         CLOUDY    66  65  96 CALM      29.80R
$$
MNZ012-019>021-037-300300-
   Northeast Minnesota

CITY           SKY/WX    TMP DP  RH WIND       PRES   REMARKS
DULUTH         CLOUDY    62  60  93 CALM      29.80R FOG
ELY            CLOUDY    61  59  94 CALM      29.81R
HIBBING        CLOUDY    65  62  90 CALM      29.81R
EVELETH        CLOUDY    63  61  94 CALM      29.81R FOG
DULUTH HARBOR  CLOUDY    63  61  94 NE6       29.79S
TWO HARBORS    HAZE      61  55  82 CALM      29.78R VSB 1/4
SILVER BAY     CLOUDY    61  61 100 CALM      29.78R
GRAND MARAIS     N/A     60  58  92 CALM      29.78R
G MARAIS ARPRT CLOUDY    57  55  94 CALM      29.82R
$$
MNZ029>031-032-039>041-046>048-054>057-064-300300-
   West Central Minnesota

CITY           SKY/WX    TMP DP  RH WIND       PRES   REMARKS
FERGUS FALLS   PTCLDY    66  64  94 N3        29.80R
WHEATON        MOCLDY    66  64  94 CALM      29.81R
MORRIS         MOCLDY    66  66 100 N3        29.79R
ALEXANDRIA     CLOUDY    69  65  86 N5        29.81R
ELBOW LAKE     FAIR      65  65  97 CALM      29.80R
WADENA         CLOUDY    66  64  94 CALM      29.80R
GLENWOOD       CLOUDY    66  64  94 CALM      29.81R
APPLETON       CLOUDY    72  66  83 CALM      29.79R
BENSON         CLOUDY    66  64  94 CALM      29.79R
ORTONVILLE     MOCLDY    70  64  83 CALM      29.80R
MADISON        CLOUDY    73  70  88 N3        29.79R
WILLMAR        FAIR      70  68  94 CALM      29.80R
$$
MNZ033>034-036-042>043-049>051-058-059-300300-
   Central Minnesota

CITY           SKY/WX    TMP DP  RH WIND       PRES   REMARKS
ST CLOUD       CLOUDY    71  68  90 CALM      29.77R
SAUK CENTRE    FAIR      67  65  93 CALM      29.80R
PAYNESVILLE    RAIN      66  66 100 CALM      29.79R
AITKIN         CLOUDY    68  63  83 CALM      29.78S
PINE RIVER     CLOUDY    66  66 100 CALM      29.83R
BRAINERD       CLOUDY    67  65  93 CALM      29.79R
STAPLES        CLOUDY    66  64  94 CALM      29.80R
LONG PRAIRIE   CLOUDY    66  64  94 NW3       29.81R
LITTLE FALLS   CLOUDY    68  64  88 CALM      29.79R
LITCHFIELD     LGT RAIN  72  72 100 CALM      29.79R
BUFFALO        HVY RAIN  69  67  93 CALM      29.78R
MAPLE LAKE     CLOUDY    70  69  98 CALM      29.78R FOG
$$
MNZ037-044-045-052-053-300300-
   East Central Minnesota

CITY           SKY/WX    TMP DP  RH WIND       PRES   REMARKS
PRINCETON      CLOUDY    70  66  88 NW3       29.78R
MORA           CLOUDY    64  64 100 CALM      29.79R
CAMBRIDGE      CLOUDY    72  63  73 CALM      29.76R
RUSH CITY      CLOUDY    68  66  93 CALM      29.77R
MOOSE LAKE     CLOUDY    64  63  94 NE3       29.77R
HINCKLEY       MOCLDY    68  66  94 N3        29.78R
CLOQUET        FOG       63  61  94 CALM      29.80R VSB 1
MCGREGOR       CLOUDY    64  64 100 CALM      29.79S
$$
MNZ071>073-080-081-089-090-097-098-300300-
   Southwest Minnesota

CITY           SKY/WX    TMP DP  RH WIND       PRES   REMARKS
MONTEVIDEO     CLOUDY    70  70 100 NE6       29.80R
GRANITE FALLS  CLOUDY    67  67 100 W3        29.80R
CANBY          CLOUDY    70  68  93 NW3       29.81R FOG
MARSHALL       CLOUDY    66  64  94 CALM      29.78S
REDWOOD FALLS  CLOUDY    66  65  96 CALM      29.78R
OLIVIA         CLOUDY    66  63  88 CALM      29.78R
PIPESTONE      CLOUDY    66  64  94 CALM      29.82R FOG
WINDOM         CLOUDY    66  64  94 CALM      29.78S
WORTHINGTON    CLOUDY    66  64  94 NW6       29.80R
JACKSON        CLOUDY    68  64  88 N3        29.79R
TRACY          CLOUDY    67  66  95 CALM      29.79S
SLAYTON        CLOUDY    65  65  99 CALM      29.82R
$$
MNZ065>067-074>077-082>085-091>093-300300-
   South Central Minnesota

CITY           SKY/WX    TMP DP  RH WIND       PRES   REMARKS
MANKATO        CLOUDY    70  64  83 NW7       29.77R
NEW ULM        CLOUDY    66  66 100 NW7       29.77R
ST JAMES       CLOUDY    68  64  88 CALM      29.78S
FAIRMONT       CLOUDY    66  64  94 NW7       29.77R
GLENCOE        LGT RAIN  69  66  91 CALM      29.77R
FARIBAULT      CLOUDY    75  68  78 CALM      29.77R
OWATONNA       CLOUDY    72  68  88 S3        29.77R
WASECA         CLOUDY    72  66  83 CALM      29.78R HAZE
ALBERT LEA     HVY RAIN  72  72 100 E6        29.78R
$$
MNZ078>079-086>088-094>096-300300-
   Southeast Minnesota

CITY           SKY/WX    TMP DP  RH WIND       PRES   REMARKS
ROCHESTER      HVY RAIN  66  64  93 S8G20     29.83S FOG
RED WING       LGT RAIN  72  68  88 SE7       29.76R
STANTON        CLOUDY    73  69  88 CALM      29.75R
DODGE CENTER   LGT RAIN  72  70  94 S13       29.80R
WINONA         RAIN      70  66  88 SW7       29.81R
AUSTIN         RAIN      64  63  94 SE6       29.80S
PRESTON        RAIN      66  66 100 CALM      29.81S
$$
ABBREVIATIONS USED IN REMARKS
   TC - TEMPERATURES IN CELSIUS
  WCI - WIND CHILL INDEX
   HX - HEAT INDEX
  VSB - VISIBILITY
$$


USA.gov is the U.S. government's official web portal to all federal, state and local government web resources and services.